Greenville/Spartanburg, SC

5:59 AM EDT on May 27, 2017 (GMT -0400)
Greenville-Spartanburg International

Weather History for KGSP - December, 2013

Change the Weather History Date:

Friday, December 6, 2013

  Actual Average Record
Temperature  
Mean Temperature 71 °F 46 °F  
Max Temperature 76 °F 56 °F 76 °F (1998)
Min Temperature 65 °F 36 °F 14 °F (1895)
Degree Days  
Heating Degree Days 0 19  
Month to date heating degree days 59 111  
Since 1 July heating degree days 663 664  
Cooling Degree Days 6 0  
Month to date cooling degree days 6 0  
Year to date cooling degree days 1533 1715  
Growing Degree Days 20 (Base 50)    
Moisture  
Dew Point 64 °F    
Average Humidity 77    
Maximum Humidity 93    
Minimum Humidity 60    
Precipitation  
Precipitation 0.08 in 0.14 in 2.02 in (1983)
Month to date precipitation 0.48 0.86  
Year to date precipitation 63.37 43.94  
Snow  
Snow 0.00 in 0.00 in 3.50 in (1901)
Month to date snowfall 0.0 0.0  
Since 1 July snowfall 0.1 0.1  
Snow Depth 0.00 in    
Sea Level Pressure  
Sea Level Pressure 29.99 in    
Wind  
Wind Speed 14 mph (SSW)    
Max Wind Speed 30 mph    
Max Gust Speed 36 mph    
Visibility 9 miles    
Events Rain    
T = Trace of Precipitation, MM = Missing Value Source: NWS Daily Summary

Daily Weather History Graph

Daily Weather History Graph

Search for Another Location

Airport or City:

Trip Planner

Search our weather history database for the weather conditions in past years. The results will help you decide how hot, cold, wet, or windy it might be!

Date:

Astronomy

Dec. 06, 2013 Rise Set
Actual Time 7:22 AM EST 5:17 PM EST
Civil Twilight 6:54 AM EST 5:45 PM EST
Nautical Twilight 6:23 AM EST 6:16 PM EST
Astronomical Twilight 5:52 AM EST 6:47 PM EST
Moon 10:32 AM EST (12/6) 9:41 PM EST (12/6)
Length of Visible Light 10h 50m
Length of Day
9h 54m
Waxing Crescent, 19% of the Moon is Illuminated
Dec 6
Waxing Crescent
Dec 9
First Quarter
Dec 17
Full
Dec 25
Last Quarter
Jan 1
New

Hourly Weather History & Observations

Time (EST) Temp. Dew Point Humidity Pressure Visibility Wind Dir Wind Speed Gust Speed Precip Events Conditions
12:17 AM 68.0 °F 66.2 °F 94% 30.02 in 10.0 mi South 15.0 mph 21.9 mph 0.00 in   Overcast
12:38 AM 68.0 °F 66.2 °F 94% 30.02 in 6.0 mi SSW 13.8 mph - 0.00 in Rain Light Rain
12:45 AM 66.2 °F 66.2 °F 100% 30.01 in 3.0 mi South 12.7 mph 21.9 mph 0.01 in Rain Light Rain
12:53 AM 66.9 °F 66.0 °F 97% 29.99 in 3.0 mi SSW 11.5 mph - 0.03 in Rain Light Rain
1:03 AM 66.2 °F 64.4 °F 94% 30.01 in 7.0 mi South 11.5 mph - 0.00 in Rain Light Rain
1:10 AM 66.2 °F 64.4 °F 94% 30.01 in 7.0 mi South 20.7 mph 27.6 mph 0.00 in Rain Light Rain
1:17 AM 66.2 °F 64.4 °F 94% 30.01 in 9.0 mi SSW 15.0 mph 27.6 mph 0.00 in   Overcast
1:24 AM 66.2 °F 64.4 °F 94% 30.01 in 7.0 mi SSW 18.4 mph 25.3 mph 0.00 in Rain Light Rain
1:53 AM 66.9 °F 64.9 °F 93% 29.99 in 10.0 mi SSW 13.8 mph - 0.00 in   Overcast
2:30 AM 66.2 °F 64.4 °F 94% 30.00 in 10.0 mi SSW 12.7 mph - N/A   Overcast
2:46 AM 66.2 °F 64.4 °F 94% 30.00 in 10.0 mi SSW 12.7 mph - N/A   Overcast
2:53 AM 66.9 °F 64.9 °F 93% 29.98 in 10.0 mi SSW 12.7 mph - N/A   Overcast
3:53 AM 66.9 °F 64.9 °F 93% 29.98 in 10.0 mi SSW 11.5 mph - 0.00 in   Overcast
4:22 AM 66.2 °F 64.4 °F 94% 30.00 in 10.0 mi SSW 13.8 mph - N/A   Overcast
4:53 AM 66.9 °F 64.0 °F 90% 29.98 in 10.0 mi South 13.8 mph - N/A   Overcast
5:53 AM 66.9 °F 64.0 °F 90% 29.97 in 10.0 mi South 15.0 mph - N/A   Overcast
6:53 AM 66.9 °F 64.0 °F 90% 29.99 in 10.0 mi SSW 17.3 mph 24.2 mph N/A   Overcast
7:36 AM 66.2 °F 62.6 °F 88% 30.02 in 10.0 mi SSW 19.6 mph 25.3 mph N/A   Overcast
7:49 AM 66.2 °F 62.6 °F 88% 30.03 in 9.0 mi SSW 16.1 mph 23.0 mph N/A   Mostly Cloudy
7:53 AM 66.9 °F 64.0 °F 90% 30.01 in 9.0 mi SSW 16.1 mph 23.0 mph N/A   Mostly Cloudy
8:53 AM 68.0 °F 64.0 °F 87% 30.03 in 10.0 mi SSW 10.4 mph - N/A   Mostly Cloudy
9:26 AM 68.0 °F 64.4 °F 88% 30.06 in 10.0 mi SSW 13.8 mph - N/A   Mostly Cloudy
9:53 AM 68.0 °F 64.0 °F 87% 30.04 in 10.0 mi South 13.8 mph - N/A   Mostly Cloudy
10:53 AM 70.0 °F 64.0 °F 81% 30.04 in 10.0 mi SSW 16.1 mph - N/A   Overcast
11:18 AM 71.6 °F 62.6 °F 73% 30.06 in 10.0 mi SSW 20.7 mph - N/A   Overcast
11:53 AM 72.0 °F 62.1 °F 71% 30.02 in 10.0 mi SW 12.7 mph 24.2 mph N/A   Overcast
12:53 PM 73.9 °F 62.1 °F 66% 29.99 in 10.0 mi SSW 15.0 mph 23.0 mph N/A   Overcast
1:53 PM 75.0 °F 61.0 °F 62% 29.97 in 10.0 mi SSW 18.4 mph 25.3 mph N/A   Overcast
2:53 PM 73.9 °F 60.1 °F 62% 29.95 in 10.0 mi SSW 21.9 mph 27.6 mph N/A   Mostly Cloudy
3:53 PM 72.0 °F 62.1 °F 71% 29.95 in 10.0 mi SSW 21.9 mph 33.4 mph 0.00 in Rain Light Rain
4:53 PM 69.1 °F 63.0 °F 81% 29.97 in 10.0 mi SSW 10.4 mph - 0.00 in   Mostly Cloudy
5:53 PM 64.9 °F 62.1 °F 90% 29.97 in 10.0 mi SSE 4.6 mph - N/A   Mostly Cloudy
6:53 PM 69.1 °F 63.0 °F 81% 29.96 in 10.0 mi SSW 13.8 mph - N/A   Mostly Cloudy
7:53 PM 70.0 °F 62.1 °F 76% 29.96 in 10.0 mi SSW 17.3 mph 26.5 mph N/A   Scattered Clouds
8:45 PM 69.8 °F 62.6 °F 78% 29.98 in 10.0 mi SSW 13.8 mph - N/A   Overcast
8:53 PM 69.1 °F 62.1 °F 78% 29.95 in 10.0 mi SSW 12.7 mph - N/A   Overcast
9:53 PM 70.0 °F 63.0 °F 78% 29.96 in 10.0 mi SSW 13.8 mph - N/A   Overcast
10:53 PM 70.0 °F 63.0 °F 78% 29.97 in 10.0 mi SSW 15.0 mph 24.2 mph N/A   Overcast
11:53 PM 66.9 °F 64.9 °F 93% 29.99 in 3.0 mi SW 11.5 mph - 0.04 in Rain Light Rain